Location: Shenandoah County Park
(38.9356°N, 78.4524°W)
Time: 04:36:24
(UTC-05:00)

Vanguard 2 - Visible Passes

Search period start: 31 January 2023 00:00
Search period end: 10 February 2023 00:00
Orbit: 553 x 2930 km, 32.9° (Epoch: 30 January)

Date Brightness Start Highest point End Pass type
(mag) Time Alt. Az. Time Alt. Az. Time Alt. Az.
31 Jan 11.3 01:39:35 22° ESE 01:39:35 22° ESE 01:43:05 10° ESE visible
31 Jan 10.1 03:40:54 56° S 03:40:54 56° S 03:52:19 10° SE visible
31 Jan 10.6 05:42:14 21° WSW 05:48:53 28° SW 05:58:11 10° S visible
31 Jan 11.1 19:07:59 10° SE 19:12:01 12° SE 19:13:27 12° ESE visible
31 Jan 10.7 21:08:25 10° SSW 21:14:48 30° S 21:14:48 30° S visible
31 Jan 11.6 23:16:06 10° WSW 23:16:09 10° WSW 23:16:09 10° WSW visible
01 Feb 11.2 01:55:27 26° ESE 01:55:27 26° ESE 01:59:58 10° ESE visible
01 Feb 10.2 03:56:47 51° SSW 03:56:47 51° SSW 04:08:43 10° SE visible
01 Feb 10.8 05:58:07 15° WSW 06:05:05 22° SW 06:13:21 10° S visible
01 Feb 10.9 19:20:56 10° SSE 19:28:07 18° SE 19:29:33 17° ESE visible
01 Feb 10.6 21:24:29 10° SW 21:30:53 33° SSW 21:30:53 33° SSW visible
02 Feb 11.0 02:11:23 29° ESE 02:11:23 29° ESE 02:16:47 10° ESE visible
02 Feb 10.3 04:12:43 44° SSW 04:12:43 44° SSW 04:24:56 10° SE visible
02 Feb 11.1 06:14:03 10° W 06:21:12 15° SW 06:27:35 10° SSW visible
02 Feb 10.6 19:35:37 10° S 19:44:15 24° SE 19:45:38 24° SE visible
02 Feb 10.6 21:40:47 10° SW 21:46:58 35° SSW 21:46:58 35° SSW visible
03 Feb11.800:26:01E00:26:01E23:48:19WSWvisible
03 Feb 10.9 02:27:20 32° SE 02:27:20 32° SE 02:33:29 10° ESE visible
03 Feb 10.5 04:28:40 37° SW 04:28:57 37° SW 04:40:52 10° SSE visible
03 Feb 10.4 19:51:01 10° SSW 20:00:28 31° SE 20:01:42 31° SE visible
03 Feb 10.6 21:57:16 10° SW 22:03:02 34° SW 22:03:02 34° SW visible
04 Feb11.900:42:00ESE00:42:00ESE00:04:23Wvisible
04 Feb 10.9 02:43:20 33° SE 02:43:20 33° SE 02:50:02 10° SE visible
04 Feb 10.7 04:44:41 29° SW 04:45:18 30° SW 04:56:27 10° SSE visible
04 Feb 10.2 20:06:50 10° SSW 20:16:48 38° SE 20:17:44 38° SE visible
04 Feb 10.7 22:13:53 10° WSW 22:19:05 32° SW 22:19:05 32° SW visible
05 Feb11.900:58:02ESE00:58:02ESE00:20:25Wvisible
05 Feb 10.9 02:59:23 33° SSE 02:59:23 33° SSE 03:06:24 10° SE visible
05 Feb 10.9 05:00:43 23° SW 05:01:33 23° SW 05:11:30 10° S visible
05 Feb 10.7 18:19:56 10° SSE 18:25:14 15° SE 18:31:43 10° E visible
05 Feb 10.0 20:22:55 10° SW 20:33:15 46° SSE 20:33:45 45° SE visible
05 Feb 10.9 22:30:37 10° WSW 22:35:05 29° WSW 22:35:05 29° WSW visible
06 Feb 10.9 03:15:26 31° SSE 03:15:26 31° SSE 03:22:32 10° SSE visible
06 Feb 11.1 05:16:46 16° SW 05:17:44 17° SW 05:25:39 10° SSW visible
06 Feb 10.5 18:34:34 10° S 18:41:19 22° SE 18:48:23 14° E visible
06 Feb 9.9 20:39:15 10° SW 20:49:43 53° SSE 20:49:43 53° SSE visible
06 Feb 11.0 22:47:25 10° WSW 22:51:03 25° WSW 22:51:03 25° WSW visible
07 Feb 11.8 01:30:10 10° ESE 01:30:10 10° ESE 01:30:19 10° ESE visible
07 Feb 11.0 03:31:31 28° S 03:31:31 28° S 03:38:22 10° SSE visible
07 Feb 11.4 05:32:51 11° SW 05:33:54 11° SW 05:36:55 10° SW visible
07 Feb 10.2 18:49:58 10° SSW 18:57:30 28° SE 19:04:19 18° E visible
07 Feb 9.8 20:55:44 10° WSW 21:05:39 58° S 21:05:39 58° S visible
07 Feb 11.2 23:04:15 10° W 23:06:58 21° W 23:06:58 21° W visible
08 Feb 11.7 01:46:15 12° SE 01:46:15 12° SE 01:46:50 10° SE visible
08 Feb 11.1 03:47:35 23° S 03:47:35 23° S 03:53:49 10° SSE visible
08 Feb 10.0 19:05:48 10° SSW 19:13:48 36° SE 19:20:13 23° E visible
08 Feb 9.8 21:12:20 10° WSW 21:21:32 60° SSW 21:21:32 60° SSW visible
08 Feb 11.3 23:21:08 10° W 23:22:52 16° W 23:22:52 16° W visible
09 Feb 11.7 02:02:19 12° SE 02:02:19 12° SE 02:03:08 10° SE visible
09 Feb 11.3 04:03:40 18° SSW 04:03:40 18° SSW 04:08:41 10° S visible
09 Feb 9.8 19:21:56 10° SW 19:30:14 43° SSE 19:36:04 29° ESE visible
09 Feb 9.9 21:29:02 10° WSW 21:37:23 57° SW 21:37:23 57° SW visible
